Weather History for K20U - January, 2013

Change the Weather History Date:

Wednesday, January 2, 2013

  Actual Average (KDIK) Record (KDIK)
Temperature  
Mean Temperature 20 °F 16 °F  
Max Temperature 24 °F 26 °F 52 °F (1963)
Min Temperature 15 °F 6 °F -34 °F (1928)
Degree Days  
Heating Degree Days 46 49  
Month to date heating degree days 98  
Since 1 July heating degree days 3635  
Cooling Degree Days 0 0  
Month to date cooling degree days 0  
Year to date cooling degree days 0  
Moisture  
Dew Point 18 °F    
Average Humidity 87    
Maximum Humidity 93    
Minimum Humidity 74    
Precipitation  
Precipitation 0.86 in 0.01 in 0.05 in (1960)
Month to date precipitation 0.02  
Year to date precipitation 0.02  
Sea Level Pressure  
Sea Level Pressure 30.12 in    
Wind  
Wind Speed 19 mph (NW)    
Max Wind Speed 26 mph    
Max Gust Speed 34 mph    
Visibility 8 miles    
Events Rain , Snow    
T = Trace of Precipitation, MM = Missing Value Source: NWS Daily Summary

Daily Weather History Graph

Daily Weather History Graph

Search for Another Location

Airport or City:

Trip Planner

Search our weather history database for the weather conditions in past years. The results will help you decide how hot, cold, wet, or windy it might be!

Date:

Astronomy

Jan. 02, 2013 Rise Set
Actual Time 7:41 AM MST 4:19 PM MST
Civil Twilight 7:06 AM MST 4:54 PM MST
Nautical Twilight 6:27 AM MST 5:32 PM MST
Astronomical Twilight 5:50 AM MST 6:09 PM MST
Moon 10:17 PM MST (1/2) 10:03 AM MST (1/2)
Length of Visible Light 9h 47m
Length of Day
8h 37m
Waning Gibbous, 74% of the Moon is Illuminated
Jan 2
Waning Gibbous
Jan 4
Last Quarter
Jan 11
New
Jan 18
First Quarter
Jan 26
Full

Hourly Weather History & Observations

Time (MST) Temp. Windchill Dew Point Humidity Pressure Visibility Wind Dir Wind Speed Gust Speed Precip Events Conditions
12:15 AM 24.8 °F 9.3 °F 23.0 °F 93% 30.00 in 3.0 mi WNW 24.2 mph 29.9 mph 0.05 in Snow Light Snow
12:35 AM 24.8 °F 9.3 °F 23.0 °F 93% 30.00 in 5.0 mi WNW 24.2 mph 34.5 mph 0.10 in Snow Light Snow
12:55 AM 24.8 °F 11.1 °F 23.0 °F 93% 30.01 in 10.0 mi NW 18.4 mph 26.5 mph 0.10 in Rain Light Freezing Rain
1:15 AM 24.8 °F 10.7 °F 23.0 °F 93% 30.01 in 10.0 mi NW 19.6 mph - N/A   Overcast
1:35 AM 24.8 °F 10.0 °F 23.0 °F 93% 30.00 in 10.0 mi NW 21.9 mph 29.9 mph N/A   Overcast
1:55 AM 24.8 °F 10.0 °F 23.0 °F 93% 30.01 in 10.0 mi NW 21.9 mph 27.6 mph N/A   Overcast
2:15 AM 24.8 °F 11.5 °F 23.0 °F 93% 30.01 in 10.0 mi WNW 17.3 mph 28.8 mph N/A   Overcast
2:35 AM 24.8 °F 10.3 °F 23.0 °F 93% 30.02 in 10.0 mi NW 20.7 mph 24.2 mph N/A   Overcast
2:55 AM 24.8 °F 11.1 °F 23.0 °F 93% 30.02 in 10.0 mi WNW 18.4 mph - N/A   Overcast
3:15 AM 24.8 °F 11.1 °F 23.0 °F 93% 30.02 in 10.0 mi WNW 18.4 mph 23.0 mph N/A   Overcast
3:35 AM 24.8 °F 10.0 °F 21.2 °F 86% 30.02 in 10.0 mi WNW 21.9 mph 27.6 mph N/A   Overcast
3:55 AM 24.8 °F 10.7 °F 21.2 °F 86% 30.03 in 10.0 mi WNW 19.6 mph - N/A   Overcast
4:15 AM 24.8 °F 10.3 °F 21.2 °F 86% 30.02 in 10.0 mi WNW 20.7 mph 25.3 mph N/A   Overcast
4:35 AM 24.8 °F 11.5 °F 21.2 °F 86% 30.02 in 10.0 mi WNW 17.3 mph - N/A   Overcast
5:15 AM 23.0 °F 9.6 °F 19.4 °F 86% 30.02 in 10.0 mi WNW 16.1 mph 20.7 mph N/A   Overcast
5:35 AM 23.0 °F 9.6 °F 19.4 °F 86% 30.02 in 10.0 mi WNW 16.1 mph - N/A   Overcast
5:55 AM 23.0 °F 8.7 °F 19.4 °F 86% 30.01 in 4.0 mi WNW 18.4 mph 26.5 mph 0.06 in Snow Light Snow
6:15 AM 21.2 °F 6.8 °F 17.6 °F 86% 30.01 in 10.0 mi WNW 17.3 mph - N/A   Mostly Cloudy
6:35 AM 21.2 °F 6.0 °F 17.6 °F 86% 30.01 in 10.0 mi WNW 19.6 mph 24.2 mph N/A   Overcast
6:55 AM 21.2 °F 5.6 °F 15.8 °F 80% 30.01 in 10.0 mi WNW 20.7 mph 25.3 mph N/A   Overcast
7:15 AM 23.0 °F 6.9 °F 17.6 °F 80% 30.02 in 10.0 mi WNW 24.2 mph 28.8 mph N/A Snow Light Snow
7:35 AM 23.0 °F 6.6 °F 15.8 °F 74% 30.02 in 6.0 mi WNW 25.3 mph 29.9 mph 0.03 in Snow Light Snow
7:55 AM 21.2 °F 3.9 °F 15.8 °F 80% 30.02 in 6.0 mi WNW 26.5 mph 32.2 mph 0.03 in   Haze
8:15 AM 21.2 °F 4.9 °F 15.8 °F 80% 30.01 in 9.0 mi WNW 23.0 mph 31.1 mph N/A   Overcast
8:35 AM 21.2 °F 5.2 °F 15.8 °F 80% 30.02 in 10.0 mi WNW 21.9 mph - N/A Snow Light Snow
8:55 AM 19.4 °F 2.8 °F 15.8 °F 86% 30.04 in 10.0 mi WNW 21.9 mph 25.3 mph N/A Snow Light Snow
9:15 AM 19.4 °F 2.5 °F 15.8 °F 86% 30.04 in 7.0 mi NW 23.0 mph 27.6 mph N/A   Overcast
9:35 AM 19.4 °F 3.6 °F 17.6 °F 93% 30.05 in 10.0 mi NW 19.6 mph 26.5 mph N/A   Overcast
9:55 AM 21.2 °F 5.2 °F 17.6 °F 86% 30.06 in 7.0 mi NW 21.9 mph 29.9 mph N/A Snow Light Snow
10:15 AM 21.2 °F 5.2 °F 17.6 °F 86% 30.07 in 9.0 mi NW 21.9 mph 29.9 mph N/A   Overcast
10:35 AM 21.2 °F 4.9 °F 17.6 °F 86% 30.08 in 6.0 mi NW 23.0 mph 29.9 mph N/A Snow Light Snow
10:55 AM 21.2 °F 4.5 °F 17.6 °F 86% 30.09 in 5.0 mi NW 24.2 mph 32.2 mph 0.01 in Snow Light Snow
11:15 AM 21.2 °F 4.2 °F 17.6 °F 86% 30.10 in 5.0 mi NW 25.3 mph 33.4 mph N/A Snow Light Snow
11:35 AM 21.2 °F 5.6 °F 17.6 °F 86% 30.10 in 2.5 mi NW 20.7 mph 28.8 mph 0.03 in Snow Light Snow
11:55 AM 21.2 °F 4.9 °F 17.6 °F 86% 30.10 in 5.0 mi NW 23.0 mph 26.5 mph 0.05 in Snow Light Snow
12:15 PM 21.2 °F 5.6 °F 19.4 °F 93% 30.11 in 7.0 mi NW 20.7 mph 27.6 mph 0.01 in Snow Light Snow
12:35 PM 23.0 °F 8.3 °F 19.4 °F 86% 30.12 in 9.0 mi NW 19.6 mph 25.3 mph 0.01 in Snow Light Snow
12:55 PM 23.0 °F 8.3 °F 19.4 °F 86% 30.12 in 7.0 mi NW 19.6 mph 24.2 mph 0.02 in Snow Light Snow
1:15 PM 23.0 °F 8.7 °F 19.4 °F 86% 30.13 in 7.0 mi NW 18.4 mph 21.9 mph N/A Snow Light Snow
1:35 PM 23.0 °F 8.3 °F 19.4 °F 86% 30.13 in 10.0 mi NW 19.6 mph 23.0 mph N/A   Overcast
1:55 PM 23.0 °F 9.2 °F 19.4 °F 86% 30.14 in 10.0 mi NW 17.3 mph 25.3 mph N/A   Overcast
2:15 PM 23.0 °F 9.2 °F 17.6 °F 80% 30.14 in 10.0 mi NW 17.3 mph - N/A   Overcast
2:35 PM 23.0 °F 8.3 °F 15.8 °F 74% 30.15 in 10.0 mi NNW 19.6 mph 28.8 mph N/A   Overcast
2:55 PM 21.2 °F 7.8 °F 17.6 °F 86% 30.16 in 9.0 mi NNW 15.0 mph - N/A Snow Light Snow
3:15 PM 21.2 °F 7.3 °F 17.6 °F 86% 30.17 in 8.0 mi NW 16.1 mph - N/A Snow Light Snow
3:35 PM 21.2 °F 7.3 °F 15.8 °F 80% 30.18 in 8.0 mi NW 16.1 mph 19.6 mph 0.01 in Snow Light Snow
3:55 PM 19.4 °F 5.0 °F 15.8 °F 86% 30.19 in 10.0 mi NW 16.1 mph 20.7 mph 0.01 in Snow Light Snow
4:15 PM 19.4 °F 4.1 °F 15.8 °F 86% 30.19 in 10.0 mi NW 18.4 mph 21.9 mph N/A Snow Light Snow
4:35 PM 19.4 °F 6.0 °F 15.8 °F 86% 30.21 in 10.0 mi NW 13.8 mph - N/A Snow Light Snow
4:55 PM 19.4 °F 5.5 °F 15.8 °F 86% 30.21 in 5.0 mi NW 15.0 mph - 0.02 in Snow Light Snow
5:15 PM 19.4 °F 5.0 °F 15.8 °F 86% 30.21 in 5.0 mi NW 16.1 mph - 0.04 in Snow Light Snow
5:35 PM 19.4 °F 5.0 °F 15.8 °F 86% 30.22 in 5.0 mi NW 16.1 mph - 0.08 in Snow Light Snow
5:55 PM 19.4 °F 4.1 °F 15.8 °F 86% 30.23 in 5.0 mi NNW 18.4 mph 23.0 mph 0.12 in Snow Light Snow
6:15 PM 17.6 °F 1.7 °F 14.0 °F 86% 30.24 in 2.0 mi NNW 18.4 mph 21.9 mph 0.11 in Snow Light Snow
6:35 PM 17.6 °F 3.2 °F 14.0 °F 86% 30.24 in 8.0 mi NW 15.0 mph - 0.30 in Snow Light Snow
6:55 PM 17.6 °F 3.2 °F 14.0 °F 86% 30.25 in 3.0 mi NW 15.0 mph - 0.34 in Snow Light Snow
7:15 PM 17.6 °F 2.7 °F 14.0 °F 86% 30.26 in 2.5 mi NNW 16.1 mph - 0.09 in Snow Light Snow
7:35 PM 17.6 °F 4.3 °F 14.0 °F 86% 30.26 in 8.0 mi NW 12.7 mph - 0.10 in Snow Light Snow
7:55 PM 17.6 °F 5.0 °F 14.0 °F 86% 30.25 in 10.0 mi NW 11.5 mph - 0.10 in Snow Light Snow
8:15 PM 17.6 °F 6.4 °F 14.0 °F 86% 30.25 in 10.0 mi NW 9.2 mph - N/A   Overcast
8:35 PM 15.8 °F 4.2 °F 14.0 °F 93% 30.26 in 10.0 mi NW 9.2 mph - N/A   Overcast
8:55 PM 17.6 °F 5.7 °F 14.0 °F 86% 30.26 in 10.0 mi NW 10.4 mph - N/A   Overcast
9:15 PM 17.6 °F 8.2 °F 14.0 °F 86% 30.27 in 10.0 mi WNW 6.9 mph - N/A   Overcast
9:35 PM 17.6 °F 8.2 °F 14.0 °F 86% 30.27 in 10.0 mi WNW 6.9 mph - N/A   Overcast
9:55 PM 17.6 °F 8.2 °F 14.0 °F 86% 30.27 in 10.0 mi NW 6.9 mph - N/A   Overcast
10:15 PM 17.6 °F 8.2 °F 14.0 °F 86% 30.27 in 10.0 mi WNW 6.9 mph - N/A   Overcast
10:35 PM 17.6 °F 6.4 °F 15.8 °F 93% 30.27 in 10.0 mi WNW 9.2 mph - N/A   Overcast
10:55 PM 17.6 °F 5.7 °F 15.8 °F 93% 30.26 in 10.0 mi WNW 10.4 mph - N/A   Overcast
11:15 PM 17.6 °F 5.0 °F 15.8 °F 93% 30.26 in 10.0 mi WNW 11.5 mph - N/A   Overcast
11:35 PM 17.6 °F 5.7 °F 15.8 °F 93% 30.25 in 10.0 mi NW 10.4 mph - N/A   Overcast
11:55 PM 17.6 °F 6.4 °F 15.8 °F 93% 30.24 in 10.0 mi WNW 9.2 mph - N/A   Overcast